Regional Weather Roundup
Issued by NWS

Home | Current Version | Previous Version | Graphics & Text | Print | Product List | Glossary On
Versions: 1 2 3 4 5 6 7 8 9 10 11 12 13 14 15 16 17 18 19 20 21 22 23 24 25 26 27 28 29 30 31 32 33 34 35 36 37 38 39 40 41 42 43 44 45 46 47 48 49 50
000
ASUS43 KBIS 081010
RWRND

NORTH DAKOTA REGIONAL WEATHER ROUNDUP
NATIONAL WEATHER SERVICE BISMARCK ND
400 AM CST THU DEC 08 2016

NOTE: "FAIR" INDICATES FEW OR NO CLOUDS BELOW 12,000 FEET WITH NO
SIGNIFICANT WEATHER AND/OR OBSTRUCTIONS TO VISIBILITY.


NDZ001>003-009>011-017-081100-
NORTHWEST NORTH DAKOTA

CITY           SKY/WX    TMP DP  RH WIND       PRES   REMARKS
WILLISTON      CLOUDY    -1  -7  75 W6        30.63R WCI -13
MINOT          FLURRIES   4  -1  80 W22G33    30.52R WCI -18
MINOT AFB      CLOUDY     2  -3  79 NW24      30.51R FOG     WCI -20
$$

NDZ018>021-031>035-040>046-081100-
SOUTHWEST NORTH DAKOTA

CITY           SKY/WX    TMP DP  RH WIND       PRES   REMARKS
BISMARCK       MIX PCPN   5   0  79 NW18      30.55R WCI -15
DICKINSON      PTCLDY    -7 -12  79 W13       30.51S WCI -27
GARRISON         N/A      2  -3  80 NW28      30.51R WCI -22
HETTINGER ARPT PTCLDY    -4 -10  75 NW12      30.54R WCI -22
$$

NDZ004>008-012>016-024-026-027-054-081100-
NORTHEAST NORTH DAKOTA

CITY           SKY/WX    TMP DP  RH WIND       PRES   REMARKS
GRAND FORKS    MIX PCPN  17  11  77 NW23G31   30.36R WCI  -1
GRND FRKS AFB  FLURRIES  16   9  73 N18       30.37R WCI  -1
DEVILS LAKE    FLURRIES  10   6  84 NW20      30.41R WCI  -9
$$

NDZ022-023-025-028>030-036>039-047>053-081100-
SOUTHEAST NORTH DAKOTA

CITY           SKY/WX    TMP DP  RH WIND       PRES   REMARKS
FARGO          MIX PCPN  18  11  74 NW23G31   30.35R WCI   0
JAMESTOWN      CLOUDY     5   2  87 NW25      30.42R FOG     WCI -18
$$





USA.gov is the U.S. government's official web portal to all federal, state and local government web resources and services.